Home   Weather   Westerstede   Past weeks

Flag for Germany Past Weather in Westerstede, Lower Saxony, Germany — Yesterday and Last 2 Weeks

Now
55 °F

Fog.


Feels Like: 55 °F
Forecast: 49 / 73 °F
Wind: 5 mph from Southwest

Location: Wittmundhaven

Current Time: Sep 1, 2016 at 5:56:20 AM

Latest Report: Sep 1, 2016 at 5:20 AM


Visibility: 1 mi

Pressure: 30.09 "Hg

Humidity: 100%

Dew Point: 55 °F

Location of WesterstedeLocation

Past Weather in Westerstede — Graph

°F

Westerstede Temperature Yesterday

Maximum temperature yesterday: 75 °F (at 2:20 PM)
Minimum temperature yesterday: 54 °F (at 6:20 AM)
Average temperature yesterday: 64 °F

High & Low Weather Summary for the Past Weeks

 TemperatureHumidityPressure
High88 °F (Aug 25, 3:20 PM)100% (Aug 17, 4:20 AM)30.30 "Hg (Aug 17, 4:20 AM)
Low46 °F (Aug 18, 5:20 AM)40% (Aug 25, 4:20 PM)29.77 "Hg (Aug 19, 10:20 PM)
Average65 °F82%30.04 "Hg
* Reported Aug 17 4:20 AM — Sep 1 4:20 AM, Westerstede, Weather by CustomWeather, © 2016

Note: Actual official high and low records may vary slightly from our data, if they occured in-between our weather recording intervals... More about our weather records

Advertising

Westerstede Weather History for the Previous 24 Hours

Scroll right to see more
 ConditionsComfort  
Time TempWeatherWind HumidityBarometerVisibility
4:20 AM
Thu, Sep 1
55 °FFog.3 mph100%30.09 "Hg1 mi
3:20 AM55 °FFog.3 mph100%30.09 "Hg2 mi
2:20 AM57 °FFog.2 mph94%30.09 "Hg3 mi
1:20 AM59 °FFog.3 mph94%30.09 "Hg3 mi
12:20 AM61 °FPassing clouds.3 mph88%30.09 "HgN/A
11:20 PM
Wed, Aug 31
61 °FFog.1 mph88%30.09 "HgN/A
10:20 PM61 °FPassing clouds.2 mph94%30.09 "HgN/A
9:20 PM63 °FPassing clouds.1 mph88%30.09 "HgN/A
8:20 PM66 °FScattered clouds.6 mph73%30.07 "HgN/A
7:20 PM73 °FScattered clouds.2 mph53%30.07 "HgN/A
6:20 PM75 °FPartly sunny.5 mph47%30.07 "HgN/A
5:20 PM75 °FPartly sunny.9 mph44%30.09 "HgN/A
4:20 PM75 °FPartly sunny.9 mph41%30.09 "HgN/A
3:20 PM75 °FPartly sunny.8 mph41%30.09 "HgN/A
2:20 PM75 °FPartly sunny.8 mph41%30.09 "HgN/A
1:20 PM73 °FPartly sunny.7 mph41%30.12 "HgN/A
12:20 PM73 °FPartly sunny.6 mph47%30.12 "HgN/A
11:20 AM70 °FPartly sunny.7 mph57%30.15 "HgN/A
10:20 AM66 °FScattered clouds.7 mph68%30.15 "HgN/A
9:20 AM61 °FScattered clouds.3 mph77%30.15 "HgN/A
8:20 AM57 °FScattered clouds.3 mph88%30.15 "HgN/A
7:20 AM54 °FLight fog.3 mph94%30.18 "Hg1 mi
6:20 AM54 °FFog.3 mph100%30.18 "Hg0 mi
5:20 AM55 °FFog.2 mph94%30.18 "Hg2 mi
Weather by CustomWeather, © 2016

See weather overviewHow to use our weather pages